Location: *
(35.1500°N, 76.6700°W)
Time: 15:51:36
(UTC+00:00)

OAO 2 Rocket - Pass Details

Date: 13 October 2019
Orbit: 676 x 746 km, 35.0° (Epoch: 22 November)

Event Time Altitude Azimuth Distance (km) Brightness Sun altitude
Rises 22:59:06 0° 252° (WSW) 3,145 8.8 -5.8°
Reaches altitude 10° 23:01:32 10° 251° (WSW) 2,232 7.5 -6.3°
Maximum altitude 23:06:47 72° 167° (SSE) 777 3.5 -7.4°
Enters shadow 23:12:01 10° 84° (E) 2,228 5.2 -8.5°
